Location: LDNL
(36.4545°S, 141.6685°E)
Time: 12:01:48
(UTC+10:00)

Tiros 1 despin weight - Pass Details

Date: 17 August 2022
Orbit: 590 x 639 km, 48.2° (Epoch: 23 September)

Event Time Altitude Azimuth Distance (km) Brightness Sun altitude
Rises 23:18:39 0° 278° (W) 2,884 - -60.9°
Reaches altitude 10° 23:21:08 10° 268° (W) 1,992 - -61.2°
Maximum altitude 23:25:17 33° 203° (SSW) 1,065 - -61.8°
Drops below altitude 10° 23:29:32 10° 138° (SE) 2,030 - -62.3°
Sets 23:32:05 0° 128° (SE) 2,948 - -62.6°
